www.pogodaiklimat.ru

АРХИВ ПОГОДЫ в Филадельфии

Время (UTC), дата Ветер
(напр.,м/с)
 
Видим.   Явления Облачность Т
(С)
Тd
(С)
f
(%)
Тe
(С)
Тes
(С)
Комфортность

P
(гПа)

Po
(гПа)
Тmin
(С)
Tmax
(С)
R
(мм)
SD
(см)
00:11 27.09 З  16 км    10/10 м
[верхняя средняя] 
0.0  0.0  100  -5  -5    1013.8  1013.2  +20.0  +26.1  3.0   
01:32 27.09 СЗ  16 км    10/10 м
[верхняя средняя] 
0.0  0.0  100  -5  -5    1014.0  1013.5  +20.0  +26.1  3.0   
02:54 27.09 З  16 км    10/10 м
[верхняя средняя] 
0.0  0.0  100  -5  -5    1014.8  1014.5  +20.0  +26.1  3.0   
03:54 27.09 СЗ  16 км    10/10 м
[верхняя средняя] 
0.0  0.0  100  -5  -5    1015.5  1015.2  +20.0  +26.1  3.0   
04:25 27.09 С  16 км    10/10 м
[верхняя средняя] 
  0.0    -5  -5    1016.0  1015.6  +20.0  +26.1  3.0   
05:54 27.09 С  16 км    10/10 м
[верхняя средняя] 
0.0  0.0  100  -6  -6    1016.7  1016.6  +16.7  +20.0     
06:54 27.09 С  16 км    10/10 м
[верхняя средняя] 
0.0  0.0  100  -8  -8    1016.9  1016.6  +16.7  +20.0     
07:54 27.09 С  16 км    10/10 м
[верхняя средняя] 
0.0  0.0  100  -7  -7    1018.4  1018.3  +16.7  +20.0     
08:54 27.09 С  16 км    10/10 м
[верхняя средняя] 
0.0  0.0  100  -6  -6    1019.3  1018.9  +16.7  +20.0     
09:54 27.09 С  16 км    10/10 м
[верхняя средняя] 
0.0  0.0  100  -7  -7    1019.8  1019.6  +16.7  +20.0     
10:54 27.09 С  6
{9} 
16 км  слабый дождь  10/10 м
[верхняя средняя] 
0.0  0.0  100  -7  -7    1020.2  1020.0  +16.7  +20.0     
11:54 27.09 С  6
{10} 
16 км    10/10 м
[верхняя средняя] 
+17.0  +9.0  59  +16  +16    1020.6  1020.3  +16.7  +22.2     
13:54 27.09 СВ  16 км    10/10 м
[верхняя средняя] 
+20.0  +8.3  47  +21  +21  комфорт  1020.7  1020.3  +16.7  +22.2     
14:54 27.09 СВ  16 км    10/10 м
[верхняя средняя] 
+21.0  +8.0  43  +22  +22  комфорт  1020.0  1019.6  +16.7  +22.2     
15:54 27.09 СВ  16 км    10/10 м
[верхняя средняя] 
+22.0  +8.0  41  +23  +23  комфорт  1020.0  1020.0  +16.7  +22.2     
16:54 27.09 В  16 км    10/10 м
[верхняя средняя] 
+21.7  +8.9  44  +23  +23  комфорт  1019.5  1019.3  +16.7  +22.2     
17:54 27.09 В  16 км    10/10 м
[верхняя средняя] 
0.0  0.0  100  -6  -6    1018.8  1018.6  +17.2  +22.2     
18:54 27.09 В  16 км    10/10 м
[верхняя средняя] 
0.0  0.0  100  -6  -6    1018.9  1018.6  +17.2  +22.2     
19:54 27.09 В  16 км    10/10 м
[верхняя средняя] 
0.0  0.0  100  -5  -5    1018.6  1018.3  +17.2  +22.2     
20:54 27.09 СВ  16 км    10/10 м
[верхняя средняя] 
0.0  0.0  100  -3  -3    1018.3  1017.9  +17.2  +22.2     
21:54 27.09 С  6
{9} 
16 км    10/10 м
[верхняя средняя] 
0.0  0.0  100  -7  -7    1018.2  1017.9  +17.2  +22.2     
22:54 27.09 С  6
{11} 
16 км    10/10 м
[верхняя средняя] 
0.0  0.0  100  -7  -7    1018.6  1018.3  +17.2  +22.2     
23:54 27.09 СВ  16 км    10/10 м
[верхняя средняя] 
0.0  0.0  100  -7  -7    1017.6  1017.3  +16.1  +17.8  0.3   
00:25 28.09 нст  3
{8} 
16 км    10/10 м
[верхняя средняя] 
0.0  0.0  100  -5  -5    1018.6  1017.6  +16.1  +17.8  0.3   
01:42 28.09 СВ  16 км    10/10 м
[верхняя средняя] 
0.0  0.0  100  -5  -5    1017.8  1017.6  +16.1  +17.8  0.3   
02:15 28.09 СВ  6 км    10/10 м
[верхняя средняя] 
  0.0    -4  -4    1017.1  1017.3  +16.1  +17.8  0.5   
03:36 28.09 СВ  6 км    10/10 м
[верхняя средняя] 
  0.0    -3  -3    1015.3  1015.6  +16.1  +17.8  0.5   
04:14 28.09 В  5 км    10/10 м
[верхняя средняя] 
0.0  0.0  100  -6  -6    1014.6  1014.9  +16.1  +17.8  0.5   
05:18 28.09 В  10 км    10/10 м
[верхняя средняя] 
0.0  0.0  100  -6  -6    1013.5  1013.5  +17.2  +19.4  21.3   
06:11 28.09 штиль  5 км    10/10 м
[верхняя средняя] 
0.0  0.0  100  -1  -1    1013.6  1013.2  +17.2  +19.4  21.3   
07:20 28.09 С  8 км    10/10 м
[верхняя средняя] 
0.0  0.0  100  -6  -6    1012.9  1012.2  +17.2  +19.4  21.3   
08:26 28.09 штиль  16 км    10/10 м
[верхняя средняя] 
0.0  0.0  100  -1  -1    1013.1  1012.5  +17.2  +19.4  22.4   
09:54 28.09 СЗ  16 км    10/10 м
[верхняя средняя] 
0.0  0.0  100  -6  -6    1013.9  1013.5  +17.2  +19.4  22.4   
10:17 28.09 С  16 км    10/10 м
[верхняя средняя] 
0.0  0.0  100  -5  -5    1014.7  1013.2  +17.2  +19.4  22.4   
11:54 28.09 С  16 км    10/10 м
[верхняя] 
+17.0  +16.0  94  +16  +16    1015.6  1015.2  +16.1  +18.9     
12:54 28.09 СЗ  16 км    10/10 м
[верхняя] 
+17.0  +16.0  94  +16  +16    1016.5  1016.2  +16.1  +18.9     
13:32 28.09 СЗ  6
{10} 
4 км    10/10 м
[верхняя] 
+17.0  +16.0  94  +16  +16    1017.6  1017.3  +16.1  +18.9     
14:54 28.09 С  16 км    10/10 м
[верхняя] 
+16.0  +14.0  88  +15  +15    1018.1  1017.9  +16.1  +18.9     
15:29 28.09 С  16 км    10/10 м
[верхняя] 
+17.0  +13.0  77  +16  +16    1018.7  1018.3  +16.1  +18.9     
16:34 28.09 С  16 км    10/10 м
[верхняя] 
+18.0  +13.0  73  +18  +18    1018.4  1018.3  +16.1  +18.9     
17:54 28.09 С  16 км    8/8 м
[верхняя] 
+19.0  +13.0  68  +20  +22    1018.4  1018.3  +16.7  +21.1     
18:54 28.09 С  16 км    8/8 м
[верхняя] 
+19.0  +13.0  68  +20  +22    1018.5  1018.3  +16.7  +21.1     
19:54 28.09 СЗ  16 км    8/8 м
[верхняя] 
+20.0  +12.8  63  +22  +23  комфорт  1018.9  1018.6  +16.7  +21.1     
20:54 28.09 штиль  16 км    8/2 м
[верхняя] 
+20.0  +13.0  64  +22  +24  комфорт  1019.1  1018.9  +16.7  +21.1     
21:54 28.09 СВ  16 км    8/2 м
[верхняя] 
+19.0  +13.0  68  +21  +21  комфорт  1019.3  1018.9  +16.7  +21.1     
22:54 28.09 ЮВ  16 км    5/0 м
[верхняя] 
+16.7  +13.9  84  +17  +17    1019.9  1019.6  +16.7  +21.1     
23:54 28.09 ЮВ  16 км    5/0 м
[верхняя] 
+16.0  +14.0  88  +16  +16    1020.4  1020.3  +14.4  +16.7     
00:54 29.09 штиль  16 км    2/0 м
[верхняя] 
+16.0  +14.0  88  +16  +16    1020.7  1020.3  +14.4  +16.7     

 

Местоположение метеостанции Philadelphia International Airport: широта 39.8733 долгота -75.2268 высота над уровнем моря 2 м.

В архиве по умолчанию представлена погода в Филадельфии за последние 1-2 суток. Обновление информации о фактической погоде в базе происходит ежечасно! Архивные данные за месяц целиком и за предыдущие месяцы Вы можете получить, выбрав интересующий диапазон дат из раскрывающегося списка и нажав кнопку "Ввод!".

Внимание! Архив погоды МЕТАР в базе сайта в настоящее время начинается c 1 января 2013 г. Нет смысла пытаться выбрать более раннюю дату.

Внимание! Время в таблицах - всемирное. Для получения местного времени необходимо прибавить поправку, которая в Филадельфии равна -5 ч.

Ветер - указаны скорость ветра в м/с и направление, откуда дует ветер: С - северный, СВ - северо-восточный, В - восточный, ЮВ - юго-восточный, Ю - южный, ЮЗ - юго-западный, З - западный, СЗ - северо-западный.
Видимость - горизонтальная дальность видимости в метрах или километрах. При видимости от 1 до 10 км при отсутствии осадков обычно наблюдается дымка, при ухудшении видимости до 1 км и менее - туман. В сухую погоду видимость может ухудшаться дымом, пылью или мглою.
Атмосферные явления - указаны явления, наблюдавшиеся в указанный момент времени.
Облачность - указаны через наклонную черту верхняя и нижняя облачность в баллах и высота нижней границы облаков в метрах. Внимание: облачность, как и прочие метеорологические величины в США измеряются автоматическими метеостанциями. Указанные значения в баллах носят условный характер и показывают процент времени, в течение которого, в среднем, лазерный луч высотомера отражался от облаков обратно.
T - Температура воздуха - температура, измеренная на высоте 2 м над землей.
Td - Температура точки росы - температура, при понижении до которой содержащийся в воздухе водяной пар достигнет насыщения.
f - Относительная влажность воздуха - влажноcть воздуха, измеренная на высоте 2 м над землей.
Te - Эффективная температура - температура, которую ощущает одетый по сезону человек в тени. Характеристика душности погоды. При расчете учитывается влияние влажности воздуха и скорости ветра на теплоощущения человека.
Tes - Эффективная температура на солнце - температура, которую ощущает человек, с поправкой на солнечный нагрев. Характеристика знойности погоды. Зависит от высоты солнца над горизонтом, облачности и скорости ветра. Ночью, в пасмурную погоду, а также при ветре 12 м/с и более поправка равна нулю.
P - Атмосферное давление - приведенное к уровню моря атмосферное давление.
Po - Атмосферное давление - измеренное на уровне метеостанции атмосферное давление.
Tmin - Минимальная температура - минимум температуры воздуха на высоте 2 м над землей.
Tmax - Максимальная температура - максимум температуры воздуха на высоте 2 м над землей.
R - Количество осадков - Количество выпавших осадков за 3 или 6 часов, мм.
SD - Снежный покров - Высота снежного покрова, см.